Location: Contre
(49.7477°N, 2.0963°E)
Time: 07:45:25
(UTC+00:00)

Cosmos 2315 Rocket - Visible Passes

Search period start: 24 September 2023 00:00
Search period end: 04 October 2023 00:00
Orbit: 966 x 1001 km, 82.9° (Epoch: 24 September)

Date Brightness Start Highest point End Pass type
(mag) Time Alt. Az. Time Alt. Az. Time Alt. Az.
24 Sep 5.7 02:43:51 10° N 02:49:31 33° ENE 02:55:10 10° SE visible
24 Sep 4.2 04:29:14 10° NNW 04:35:22 52° W 04:41:30 10° SSW visible
25 Sep 6.9 01:28:25 10° NNE 01:30:34 12° NE 01:32:42 10° ENE visible
25 Sep 4.7 03:11:30 10° N 03:17:45 55° ENE 03:23:58 10° SSE visible
25 Sep 4.8 04:57:35 10° NNW 05:02:59 30° W 05:08:23 10° SW visible
25 Sep 6.7 18:35:36 10° WSW 18:40:00 20° WNW 18:44:27 10° NNW visible
26 Sep 6.4 01:54:45 10° NNE 01:59:15 20° ENE 02:03:44 10° ESE visible
26 Sep 4.0 03:39:21 10° N 03:45:45 89° W 03:52:09 10° S visible
26 Sep 7.1 19:06:37 10° WNW 19:08:41 12° NW 19:10:47 10° NNW visible
27 Sep 5.6 02:22:04 10° N 02:27:42 32° ENE 02:33:20 10° SE visible
27 Sep 4.1 04:07:25 10° NNW 04:13:35 53° W 04:19:43 10° SSW visible
28 Sep 6.8 01:06:42 10° NNE 01:08:44 11° NE 01:10:46 10° ENE visible
28 Sep 4.7 02:49:41 10° N 02:55:56 54° ENE 03:02:10 10° SSE visible
28 Sep 4.7 04:35:45 10° NNW 04:41:12 31° W 04:46:38 10° SW visible
28 Sep 6.7 18:13:43 10° WSW 18:18:10 20° WNW 18:22:41 10° NNW visible
29 Sep 6.3 01:32:58 10° NNE 01:37:26 19° ENE 01:41:53 10° ESE visible
29 Sep 4.0 03:17:32 10° N 03:23:57 90° E 03:30:21 10° S visible
29 Sep 5.3 05:04:37 10° NW 05:08:38 18° WNW 05:12:40 10° WSW visible
29 Sep 7.0 18:44:36 10° WNW 18:46:51 12° NW 18:49:06 10° NNW visible
30 Sep 5.6 02:00:15 10° N 02:05:53 32° ENE 02:11:29 10° SE visible
30 Sep 4.1 03:45:36 10° NNW 03:51:47 54° W 03:57:57 10° SSW visible
01 Oct 6.7 00:45:00 10° NE 00:46:54 11° NE 00:48:48 10° ENE visible
01 Oct 4.7 02:27:53 10° N 02:34:07 53° ENE 02:40:17 10° SSE visible
01 Oct 4.7 04:13:55 10° NNW 04:19:25 31° W 04:24:51 10° SW visible
02 Oct 6.3 01:11:12 10° NNE 01:15:36 19° ENE 01:20:00 10° ESE visible
02 Oct 3.9 02:55:44 10° N 03:02:09 88° E 03:05:21 32° S visible
02 Oct 5.3 04:42:45 10° NW 04:46:51 18° WNW 04:50:03 13° WSW visible
02 Oct 6.9 18:22:38 10° WNW 18:25:01 12° NW 18:27:24 10° NNW visible
03 Oct 5.6 01:38:28 10° N 01:44:04 31° ENE 01:46:42 23° ESE visible
03 Oct 4.1 03:23:47 10° NNW 03:29:59 55° W 03:31:25 46° SW visible
